DUNNNINGN Weather Reports


Display with metric or nautical units.
time (UTC)temp
F
wind
direction
speed
MPH
gust
MPH
rain 1hr
in
rain 24hr
in
rain mn
in
humidity
%
barometer
mb
20260502180211 71 269 2.0 0.0 0.00 0.00 0.00 43 1016.5
20260502170209 74 240 7.0 0.0 0.00 0.00 0.00 35 1016.7
20260502163210 76 240 7.0 0.0 0.00 0.00 0.00 31 1017.0
20260502160213 77 342 3.0 0.0 0.00 0.00 0.00 30 1017.4
20260502150210 76 157 7.0 0.0 0.00 0.00 0.00 30 1017.9
20260502130210 76 161 9.0 0.0 0.00 0.00 0.00 31 1019.4
20260502123210 76 120 8.0 0.0 0.00 0.00 0.00 30 1019.8
20260502120210 75 215 7.0 0.0 0.00 0.00 0.00 30 1020.3
20260502113210 75 192 6.0 0.0 0.00 0.00 0.00 30 1020.7
20260502110210 74 12 5.0 0.0 0.00 0.00 0.00 28 1021.1
20260502103210 74 86 7.0 0.0 0.00 0.00 0.00 34 1021.3
20260502100210 72 40 4.0 0.0 0.00 0.00 0.00 33 1021.8
20260502090210 69 88 3.0 0.0 0.00 0.00 0.00 44 1022.2
20260502070213 56 118 6.0 0.0 0.00 0.00 0.00 61 1022.7
20260502063212 50 140 5.0 0.0 0.00 0.00 0.00 68 1022.8
20260502060210 45 153 6.0 0.0 0.00 0.00 0.00 73 1023.0
20260502053210 42 182 5.0 0.0 0.00 0.00 0.00 77 1022.8
20260502050211 40 163 4.0 0.0 0.00 0.00 0.00 80 1022.9
20260502043211 38 159 4.0 0.0 0.00 0.00 0.00 80 1023.0
20260502040212 38 159 2.0 0.0 0.00 0.00 0.00 80 1023.1
20260502033211 38 184 2.0 0.0 0.00 0.00 0.00 80 1023.3
20260502030211 38 183 3.0 0.0 0.00 0.00 0.00 79 1023.3
20260502023214 39 207 1.0 0.0 0.00 0.00 0.00 77 1023.5
20260502020212 39 207 1.0 0.0 0.00 0.00 0.00 77 1023.6
20260502013211 40 218 0.0 0.0 0.00 0.00 0.00 76 1023.8
20260502010211 41 184 2.0 0.0 0.00 0.00 0.00 75 1023.8
20260502003209 42 184 0.0 0.0 0.00 0.00 0.00 73 1024.0
20260502000211 43 184 0.0 0.0 0.00 0.00 0.00 71 1024.0
20260501233210 44 184 0.0 0.0 0.00 0.00 0.00 68 1024.2
20260501230210 46 207 0.0 0.0 0.00 0.00 0.00 67 1024.0
20260501223209 47 207 0.0 0.0 0.00 0.00 0.00 65 1024.1
20260501213210 50 207 1.0 0.0 0.00 0.00 0.00 58 1024.1
20260501210210 52 134 1.0 0.0 0.00 0.00 0.00 58 1024.0
20260501203209 54 134 0.0 0.0 0.00 0.00 0.00 51 1024.1
20260501200211 57 134 2.0 0.0 0.00 0.00 0.00 47 1023.9
20260501193209 60 126 0.0 0.0 0.00 0.00 0.00 43 1023.8
20260501190210 63 126 0.0 0.0 0.00 0.00 0.00 37 1023.7
20260501183210 65 137 4.0 0.0 0.00 0.00 0.00 32 1023.5